Regional Weather Roundup
Issued by NWS Green Bay, WI

Home | Current Version | Previous Version | Text Only | Print | Product List | Glossary On
Versions: 1 2 3 4 5 6 7 8 9 10 11 12 13 14 15 16 17 18 19 20 21 22 23 24 25 26 27 28 29 30 31 32 33 34 35 36 37 38 39 40 41 42 43 44 45 46 47 48 49 50
000
ASUS43 KGRB 300710
RWRGRB

NORTH-CENTRAL AND NORTHEAST WISCONSIN REGIONAL WEATHER ROUNDUP
NATIONAL WEATHER SERVICE GREEN BAY WI
200 AM CDT WED JUL 30 2014

WIZ005-009-010>012-018-019-300800-
NORTH CENTRAL WISCONSIN

CITY           SKY/WX    TMP DP  RH WIND       PRES   REMARKS
IRONWOOD       NOT AVBL
MANITOWISH WTR PTCLDY    51  51 100 CALM      30.05S FOG
ARBOR VITAE    CLEAR     53  51  92 N7        30.05S
EAGLE RIVER    CLEAR     48  48 100 CALM      30.04S FOG
LAND O LAKES   CLOUDY    54  54 100 N3        30.05F
RHINELANDER    CLEAR     52  51  97 CALM      30.05S
PHILLIPS       MOCLDY    52  52 100 NW3       30.05R FOG
ANTIGO         CLEAR     51  51  99 N5        30.03S
TOMAHAWK       FOG       47  47  97 CALM      30.05S VSB 1/4
MERRILL        FOG       49  49 100 CALM      30.04S VSB 1/4
$$

WIZ013-073-300800-
NORTHEAST WISCONSIN

CITY           SKY/WX    TMP DP  RH WIND       PRES   REMARKS
IRON MOUNTAIN  CLEAR     50  47  89 NW5       30.01S
MARINETTE      CLEAR     57  54  88 N3        29.99S
OCONTO         MOCLDY    58  58 100 CALM      29.99S
$$

WIZ017-030-035>037-045-300800-
CENTRAL WISCONSIN

CITY           SKY/WX    TMP DP  RH WIND       PRES   REMARKS
MEDFORD        PTCLDY    53  53  99 NW6       30.04S
WAUSAU         CLEAR     56  54  93 NW7       30.01S
MOSINEE        CLEAR     54  54 100 NW3       30.04S
MARSHFIELD     PTCLDY    56  54  93 NW5       30.03R
WISC RAPIDS    MOCLDY    57  56  96 NW5       30.04S
STEVENS POINT  PTCLDY    53  51  95 CALM      30.03S
WAUPACA        MOCLDY    60  56  86 NW3       30.01S
SHAWANO        MOCLDY    61  58  91 N7        30.01R
CLINTONVILLE   CLOUDY    59  55  88 N3        30.00S
$$

WIZ038-039-048-051-300800-
FOX VALLEY

CITY           SKY/WX    TMP DP  RH WIND       PRES   REMARKS
NWS GREEN BAY  CLOUDY    59  58  96 NW5       29.99S
APPLETON       CLEAR     55  54  94 NW8       30.00S
OSHKOSH        CLEAR     58  56  93 W5        29.99S
FOND DU LAC    CLEAR     56  54  93 SW5       30.00F
$$

WIZ022-050-052-300800-
EAST CENTRAL WISCONSIN

CITY           SKY/WX    TMP DP  RH WIND       PRES   REMARKS
STURGEON BAY   PTCLDY    59  55  88 NE5       29.99F
MANITOWOC      CLOUDY    59  57  93 MISG      29.99S
SHEBOYGAN      CLEAR     58  55  90 W7        29.98F
$$

LMZ563-521-522-541>543-300800-
LAKESHORE

STATION/POSITION TIME  TEMP    WIND        PRES    VSBY  WAVE
                       AIR SEA DIR/SP/G                  HT/PER
                 (UTC) (F)     (DEG/KT/KT) (MB)    (MI)  (FT/S)
SHEBOYGAN LKSHOR 0700   62     280/ 10/ 12 1015.2F
KEWAUNEE LKSHORE 0700   57     310/  1/  2 1016.0S
ALGOMA MARINA    0600           40/  8/ 10   N/A
NORTHPORT PIER   0700   61     360/  5/  7 1015.6S
N MID LAKE BUOY  0700   56 54  340/  6/  8 1014.8S         0
S GREEN BAY BUOY 0700   64 66   30/ 12     1016.3R
SISTER BAY LKSHO 0700   58        CALM       N/A
CHAMBERS ISLAND  0700   63      10/ 12/ 13 1015.6S
MENOMINEE LKSHOR 0700   61     350/  6/  8 1016.2S
$$


USA.gov is the U.S. government's official web portal to all federal, state and local government web resources and services.